Location: Cold Norton
(51.6667°N, 0.6667°E)
Time: 06:33:38
(UTC+00:00)

Cosmos 1862 - Pass Details

Date: 18 November 2025
Orbit: 473 x 485 km, 82.5° (Epoch: 12 December)

Event Time Altitude Azimuth Distance (km) Brightness Sun altitude
Rises 17:49:16 0° 351° (N) 2,544 6.7 -16.1°
Reaches altitude 10° 17:51:23 10° 354° (N) 1,662 5.7 -16.4°
Maximum altitude 17:55:00 69° 78° (ENE) 519 2.9 -17.0°
Drops below altitude 10° 17:58:37 10° 162° (SSE) 1,656 5.7 -17.5°
Sets 18:00:43 0° 165° (SSE) 2,533 6.7 -17.9°
